KQ4UWH Weather Reports


Display with metric or nautical units.
time (UTC)temp
F
wind
direction
speed
MPH
gust
MPH
rain 1hr
in
rain 24hr
in
rain mn
in
humidity
%
barometer
mb
20260505051539 55 104 0.0 0.0 0.00 0.00 0.00 72 1239.7
20260505051037 55 104 0.0 0.0 0.00 0.00 0.00 72 1239.7
20260505050535 56 104 0.0 0.0 0.00 0.00 0.00 73 1239.7
20260505041503 56 104 0.0 0.0 0.00 0.00 0.00 70 1239.7
20260505041000 56 104 0.0 0.0 0.00 0.00 0.00 70 1239.7
20260505040457 57 104 0.0 0.0 0.00 0.00 0.00 69 1239.7
20260505035954 57 104 0.0 0.0 0.00 0.00 0.00 68 1239.7
20260505035450 57 104 0.0 0.0 0.00 0.00 0.00 69 1239.7
20260505034948 57 106 0.0 0.0 0.00 0.00 0.00 69 1239.7
20260505034444 57 100 0.0 0.0 0.00 0.00 0.00 69 1239.7
20260505033941 57 100 0.0 0.0 0.00 0.00 0.00 69 1239.7
20260505033437 57 101 0.0 0.0 0.00 0.00 0.00 69 1239.7
20260505032936 57 101 0.0 0.0 0.00 0.00 0.00 69 1239.7
20260505032433 57 100 0.0 0.0 0.00 0.00 0.00 67 1239.7
20260505031929 58 100 0.0 0.0 0.00 0.00 0.00 68 1239.7
20260505031426 58 99 0.0 0.0 0.00 0.00 0.00 66 1239.7
20260505030923 58 99 0.0 0.0 0.00 0.00 0.00 67 1239.7
20260505030419 58 96 0.0 0.0 0.00 0.00 0.00 66 1239.7
20260505025915 58 96 0.0 0.0 0.00 0.00 0.00 68 1239.7
20260505025412 58 96 0.0 0.0 0.00 0.00 0.00 65 1239.7
20260505024911 59 96 0.0 0.0 0.00 0.00 0.00 65 1239.7
20260505024408 59 93 0.0 0.0 0.00 0.00 0.00 64 1239.7
20260505023905 59 93 0.0 0.0 0.00 0.00 0.00 65 1239.7
20260505023402 59 93 0.0 0.0 0.00 0.00 0.00 64 1239.7
20260505022859 60 94 0.0 0.0 0.00 0.00 0.00 63 1239.7
20260505022356 60 94 0.0 0.0 0.00 0.00 0.00 63 1239.7
20260505021854 60 94 0.0 0.0 0.00 0.00 0.00 63 1239.7
20260505021350 60 94 0.0 0.0 0.00 0.00 0.00 63 1239.7
20260505020846 60 91 0.0 0.0 0.00 0.00 0.00 63 1239.7
20260505020341 60 99 0.0 0.0 0.00 0.00 0.00 63 1239.7
20260505015838 60 100 0.0 0.0 0.00 0.00 0.00 62 1239.7
20260505015336 60 100 0.0 0.0 0.00 0.00 0.00 61 1239.7
20260505014833 61 100 0.0 0.0 0.00 0.00 0.00 61 1239.7
20260505014330 61 103 0.0 0.0 0.00 0.00 0.00 58 1239.7
20260505013826 62 104 0.0 0.0 0.00 0.00 0.00 57 1239.7
20260505013323 62 100 0.0 0.0 0.00 0.00 0.00 60 1239.7
20260505012822 62 100 0.0 0.0 0.00 0.00 0.00 59 1239.7
20260505012319 63 95 0.0 0.0 0.00 0.00 0.00 58 1239.7
20260505011815 63 95 0.0 0.0 0.00 0.00 0.00 57 1239.7
20260505011312 64 100 0.0 0.0 0.00 0.00 0.00 56 1239.7
20260505010808 64 101 0.0 0.0 0.00 0.00 0.00 56 1239.7
20260505010304 65 101 0.0 0.0 0.00 0.00 0.00 55 1239.7
20260505005800 65 100 0.0 0.0 0.00 0.00 0.00 55 1239.7
20260505005257 66 99 0.0 0.0 0.00 0.00 0.00 54 1239.7
20260505004755 66 99 0.0 0.0 0.00 0.00 0.00 53 1239.7
20260505004250 67 100 0.0 0.0 0.00 0.00 0.00 52 1239.7
20260505003748 67 103 0.0 0.0 0.00 0.00 0.00 50 1239.7
20260505003246 67 103 0.0 0.0 0.00 0.00 0.00 52 1239.7
20260505002742 67 98 0.0 0.0 0.00 0.00 0.00 51 1239.7
20260505002239 68 98 0.0 0.0 0.00 0.00 0.00 52 1239.7
20260505001737 68 98 0.0 0.0 0.00 0.00 0.00 50 1239.7
20260505001234 69 98 0.0 0.0 0.00 0.00 0.00 50 1239.7
20260505000731 69 98 0.0 0.0 0.00 0.00 0.00 49 1239.7
20260505000229 70 98 0.0 0.0 0.00 0.00 0.00 47 1239.7
20260504235725 71 99 0.0 0.0 0.00 0.00 0.00 46 1239.7
20260504235221 71 99 0.0 0.0 0.00 0.00 0.00 45 1239.7
20260504234719 72 99 0.0 0.0 0.00 0.00 0.00 44 1239.7
20260504234216 72 99 0.0 0.0 0.00 0.00 0.00 42 1239.7
20260504233712 73 103 0.0 0.0 0.00 0.00 0.00 42 1239.7
20260504233208 73 99 0.0 0.0 0.00 0.00 0.00 41 1239.7
20260504232706 73 113 0.0 0.0 0.00 0.00 0.00 40 1239.7
20260504232202 73 107 0.0 0.0 0.00 0.00 0.00 39 1239.7
20260504231659 74 117 0.0 0.0 0.00 0.00 0.00 37 1239.7
20260504231155 74 154 0.0 0.0 0.00 0.00 0.00 35 1239.7
20260504230652 75 123 0.0 0.0 0.00 0.00 0.00 35 1239.7
20260504230151 75 121 0.0 0.0 0.00 0.00 0.00 34 1239.7
20260504225649 76 130 0.0 0.0 0.00 0.00 0.00 36 1239.7
20260504225144 76 152 0.0 1.0 0.00 0.00 0.00 33 1239.7
20260504224641 77 134 0.0 0.0 0.00 0.00 0.00 32 1239.7
20260504224138 78 110 0.0 0.0 0.00 0.00 0.00 33 1239.7
20260504223635 79 127 0.0 1.0 0.00 0.00 0.00 31 1239.7
20260504223131 78 128 0.0 0.0 0.00 0.00 0.00 31 1239.7
20260504222628 78 142 2.0 3.0 0.00 0.00 0.00 31 1239.7
20260504222125 79 189 4.0 6.0 0.00 0.00 0.00 31 1239.7
20260504221622 79 175 3.0 3.0 0.00 0.00 0.00 31 1239.7
20260504221119 79 169 2.0 2.0 0.00 0.00 0.00 30 1239.7
20260504220615 79 192 3.0 4.0 0.00 0.00 0.00 30 1239.7
20260504220114 78 96 0.0 0.0 0.00 0.00 0.00 34 1239.7
20260504215609 79 137 1.0 1.0 0.00 0.00 0.00 30 1239.7
20260504215107 79 139 2.0 3.0 0.00 0.00 0.00 32 1239.7
20260504214603 78 111 1.0 1.0 0.00 0.00 0.00 35 1239.7
20260504214059 78 100 0.0 0.0 0.00 0.00 0.00 33 1239.7
20260504213555 78 121 1.0 2.0 0.00 0.00 0.00 33 1239.7
20260504213053 78 133 0.0 0.0 0.00 0.00 0.00 33 1239.7
20260504212548 78 102 0.0 0.0 0.00 0.00 0.00 36 1239.7
20260504212046 79 148 0.0 0.0 0.00 0.00 0.00 30 1239.7
20260504211543 80 181 2.0 2.0 0.00 0.00 0.00 29 1239.7
20260504211040 78 110 1.0 1.0 0.00 0.00 0.00 31 1239.7
20260504210537 78 114 1.0 1.0 0.00 0.00 0.00 31 1239.7
20260504210033 80 152 0.0 0.0 0.00 0.00 0.00 31 1239.7
20260504205531 81 141 0.0 0.0 0.00 0.00 0.00 29 1239.7
20260504205029 81 120 1.0 2.0 0.00 0.00 0.00 30 1239.7
20260504204527 80 174 2.0 3.0 0.00 0.00 0.00 33 1239.7
20260504204026 80 160 0.0 0.0 0.00 0.00 0.00 34 1239.7
20260504203523 79 164 0.0 0.0 0.00 0.00 0.00 35 1239.7
20260504203021 80 83 0.0 0.0 0.00 0.00 0.00 31 1239.7
20260504202516 80 168 0.0 1.0 0.00 0.00 0.00 31 1239.7
20260504202013 81 126 0.0 0.0 0.00 0.00 0.00 31 1239.7
20260504201510 81 116 2.0 2.0 0.00 0.00 0.00 30 1239.7
20260504201008 80 182 1.0 3.0 0.00 0.00 0.00 31 1239.7
20260504200504 80 171 1.0 1.0 0.00 0.00 0.00 29 1239.7
20260504200000 80 59 0.0 0.0 0.00 0.00 0.00 28 1239.7
20260504195456 78 139 0.0 0.0 0.00 0.00 0.00 28 1239.7
20260504194953 78 78 0.0 0.0 0.00 0.00 0.00 29 1239.7
20260504194449 78 62 1.0 1.0 0.00 0.00 0.00 30 1239.7
20260504193945 79 143 1.0 2.0 0.00 0.00 0.00 29 1239.7
20260504193443 78 141 1.0 2.0 0.00 0.00 0.00 32 1239.7
20260504192941 78 122 1.0 1.0 0.00 0.00 0.00 29 1239.7
20260504192438 78 61 0.0 1.0 0.00 0.00 0.00 30 1239.7
20260504191937 78 87 0.0 1.0 0.00 0.00 0.00 33 1239.7
20260504191435 79 129 2.0 2.0 0.00 0.00 0.00 31 1239.7
20260504190936 78 94 0.0 0.0 0.00 0.00 0.00 34 1239.7
20260504190432 77 104 0.0 0.0 0.00 0.00 0.00 36 1239.7
20260504185928 77 71 2.0 3.0 0.00 0.00 0.00 35 1239.7
20260504185426 77 197 0.0 2.0 0.00 0.00 0.00 35 1239.7
20260504184921 77 88 0.0 1.0 0.00 0.00 0.00 37 1239.7
20260504184418 77 98 0.0 0.0 0.00 0.00 0.00 35 1239.7
20260504183914 77 52 0.0 0.0 0.00 0.00 0.00 34 1239.7
20260504183411 77 59 1.0 2.0 0.00 0.00 0.00 33 1239.7
20260504182909 77 93 0.0 0.0 0.00 0.00 0.00 32 1239.7
20260504182406 77 87 0.0 0.0 0.00 0.00 0.00 33 1239.7
20260504181902 77 95 0.0 0.0 0.00 0.00 0.00 36 1239.7
20260504181400 77 118 1.0 2.0 0.00 0.00 0.00 35 1239.7
20260504180859 76 141 0.0 0.0 0.00 0.00 0.00 34 1239.7
20260504180357 76 85 1.0 1.0 0.00 0.00 0.00 37 1239.7
20260504175855 75 116 0.0 0.0 0.00 0.00 0.00 37 1239.7
20260504175351 75 153 2.0 2.0 0.00 0.00 0.00 35 1239.7
20260504174849 75 86 0.0 0.0 0.00 0.00 0.00 38 1239.7
20260504174346 75 106 0.0 0.0 0.00 0.00 0.00 37 1239.7
20260504173843 75 21 2.0 2.0 0.00 0.00 0.00 38 1239.7
20260504173340 76 198 2.0 2.0 0.00 0.00 0.00 36 1239.7
20260504172837 76 59 0.0 0.0 0.00 0.00 0.00 38 1239.7
20260504172334 75 201 2.0 2.0 0.00 0.00 0.00 37 1239.7
20260504171829 75 77 0.0 0.0 0.00 0.00 0.00 40 1239.7
20260504171327 76 92 0.0 0.0 0.00 0.00 0.00 37 1239.7
20260504170824 76 139 1.0 1.0 0.00 0.00 0.00 38 1239.7
20260504170321 75 102 0.0 1.0 0.00 0.00 0.00 39 1239.7
20260504160239 72 67 0.0 0.0 0.00 0.00 0.00 41 1239.7
20260504150704 66 131 1.0 2.0 0.00 0.00 0.00 50 1239.7
20260504150201 66 110 2.0 3.0 0.00 0.00 0.00 50 1239.7
20260504141130 60 105 0.0 1.0 0.00 0.00 0.00 60 1239.7
20260504140627 59 116 1.0 1.0 0.00 0.00 0.00 62 1239.7
20260504140123 59 93 0.0 0.0 0.00 0.00 0.00 66 1239.7
20260504130551 50 84 0.0 0.0 0.00 0.00 0.00 89 1239.7
20260504110438 43 84 0.0 0.0 0.00 0.00 0.00 97 1239.7
20260504100355 43 94 0.0 0.0 0.00 0.00 0.00 96 1239.7
20260504081748 44 93 0.0 0.0 0.00 0.00 0.00 92 1239.7
20260504081244 44 93 0.0 0.0 0.00 0.00 0.00 92 1239.7
20260504080741 44 93 0.0 0.0 0.00 0.00 0.00 91 1239.7
20260504080238 44 100 0.0 0.0 0.00 0.00 0.00 91 1239.7
20260504070205 45 90 0.0 0.0 0.00 0.00 0.00 91 1239.7
20260504060126 46 87 0.0 0.0 0.00 0.00 0.00 86 1239.7